weather.gov     
National Weather Service

Terminal Aerodrome Forecast
NWS Homepage
This page is being discontinued on March 12, 2014.
The same data is available at this site. Please update your bookmarks.
Thank you, and we apologize for the inconvenience.
Please send an email to SR-SRH.Webmaster@noaa.gov with any concerns.


Current Version
Previous Version:    01  02  03  04  05  06  07  08  09  10  11  12  13  14  15  16  17  18  19  20  21  22  23  24  25  26  27  28  29  30  
   31  32  33  34  35  36  37  38  39  40  41  42  43  44  45  46  47  48  49  50  51  
[Printable]
758
FTUS42 KILM 171700
TAFFLO
TAF
KFLO 171728Z 1718/1818 04005KT P6SM SCT020 BKN060
     FM172000 06006KT P6SM VCSH BKN035
     FM180600 03004KT 3SM BR BKN004
     FM180800 03003KT 3/4SM BR BKN005
     FM181300 05006KT 6SM BR BKN005 OVC030
     FM181500 05006KT P6SM BKN012 OVC025=


U.S. Dept. of Commerce
NOAA National Weather Service
1325 East West Highway
Silver Spring, MD 20910
E-mail: w-nws.webmaster@noaa.gov
Page last modified: May 16, 2007
NATIONAL WEATHER SERVICE: for Safety, for Work, for Fun - FOR LIFE